Baker City, OR

10:25 AM PST on February 10, 2016 (GMT -0800)
Baker City Municipal

Weather History for KBKE - May, 2013

Change the Weather History Date:

Wednesday, May 15, 2013

  Actual Average Record
Temperature  
Mean Temperature 52 °F 51 °F  
Max Temperature 68 °F 66 °F 90 °F (1973)
Min Temperature 35 °F 36 °F 25 °F (1966)
Degree Days  
Heating Degree Days 13 14  
Month to date heating degree days 136 240  
Since 1 July heating degree days 7042 7253  
Cooling Degree Days 0 0  
Month to date cooling degree days 4 0  
Year to date cooling degree days 4 0  
Growing Degree Days 2 (Base 50)    
Moisture  
Dew Point 34 °F    
Average Humidity 55    
Maximum Humidity 85    
Minimum Humidity 24    
Precipitation  
Precipitation T in 0.04 in 1.05 in (2011)
Month to date precipitation 0.65 0.65  
Year to date precipitation 2.58 3.70  
Sea Level Pressure  
Sea Level Pressure 29.99 in    
Wind  
Wind Speed 8 mph (West)    
Max Wind Speed 23 mph    
Max Gust Speed 29 mph    
Visibility 10 miles    
Events      
T = Trace of Precipitation, MM = Missing Value Source: NWS Daily Summary

Daily Weather History Graph

Daily Weather History Graph

Search for Another Location

Airport or City:

Trip Planner

Search our weather history database for the weather conditions in past years. The results will help you decide how hot, cold, wet, or windy it might be!

Date:

Astronomy

May. 15, 2013 Rise Set
Actual Time 5:22 AM PDT 8:13 PM PDT
Civil Twilight 4:48 AM PDT 8:47 PM PDT
Nautical Twilight 4:04 AM PDT 9:31 PM PDT
Astronomical Twilight 3:14 AM PDT 10:22 PM PDT
Moon 10:04 AM PDT (5/15) 12:00 AM PDT (5/15)
Length of Visible Light 15h 59m
Length of Day
14h 51m
Waxing Crescent, 28% of the Moon is Illuminated
May 15
Waxing Crescent
May 17
First Quarter
May 24
Full
May 31
Last Quarter
Jun 8
New

Hourly Weather History & Observations

Time (PDT) Temp. Windchill Dew Point Humidity Pressure Visibility Wind Dir Wind Speed Gust Speed Precip Events Conditions
12:53 AM 45.0 °F 41.2 °F 34.0 °F 65% 30.07 in 10.0 mi West 6.9 mph - N/A   Clear
1:53 AM 41.0 °F 38.0 °F 33.1 °F 73% 30.07 in 10.0 mi South 4.6 mph - N/A   Clear
2:53 AM 39.9 °F 35.8 °F 34.0 °F 79% 30.05 in 10.0 mi WSW 5.8 mph - N/A   Clear
3:53 AM 39.9 °F - 35.1 °F 83% 30.03 in 10.0 mi Calm Calm - N/A   Clear
4:53 AM 37.9 °F - 34.0 °F 86% 30.04 in 10.0 mi Calm Calm - N/A   Clear
5:53 AM 37.0 °F - 33.1 °F 86% 30.06 in 10.0 mi Calm Calm - N/A   Clear
6:53 AM 44.1 °F - 36.0 °F 73% 30.06 in 10.0 mi Calm Calm - N/A   Clear
7:53 AM 48.9 °F - 35.1 °F 59% 30.05 in 10.0 mi SW 4.6 mph - N/A   Clear
8:53 AM 51.1 °F - 35.1 °F 54% 30.04 in 10.0 mi SSW 3.5 mph - N/A   Clear
9:53 AM 55.0 °F - 32.0 °F 42% 30.02 in 10.0 mi West 3.5 mph - N/A   Clear
10:53 AM 57.9 °F - 28.9 °F 33% 30.01 in 10.0 mi West 5.8 mph - N/A   Clear
11:53 AM 61.0 °F - 30.9 °F 32% 29.99 in 10.0 mi NW 5.8 mph - N/A   Clear
12:53 PM 63.0 °F - 28.9 °F 28% 29.96 in 10.0 mi West 8.1 mph - N/A   Clear
1:53 PM 64.9 °F - 28.9 °F 26% 29.95 in 10.0 mi WNW 9.2 mph - N/A   Clear
2:53 PM 66.9 °F - 28.9 °F 24% 29.92 in 10.0 mi NW 12.7 mph - N/A   Clear
3:53 PM 68.0 °F - 32.0 °F 26% 29.91 in 10.0 mi NW 11.5 mph - N/A   Clear
4:53 PM 66.0 °F - 30.9 °F 27% 29.91 in 10.0 mi WNW 8.1 mph - N/A   Mostly Cloudy
5:53 PM 66.0 °F - 37.0 °F 34% 29.90 in 10.0 mi NW 18.4 mph - N/A   Clear
6:53 PM 61.0 °F - 36.0 °F 39% 29.90 in 10.0 mi NW 19.6 mph - N/A   Clear
7:53 PM 55.9 °F - 36.0 °F 47% 29.92 in 10.0 mi NW 18.4 mph - N/A   Clear
8:53 PM 53.1 °F - 36.0 °F 52% 29.95 in 10.0 mi NNW 11.5 mph - N/A   Mostly Cloudy
9:53 PM 51.1 °F - 35.1 °F 54% 29.96 in 10.0 mi WNW 12.7 mph - N/A   Mostly Cloudy
10:53 PM 50.0 °F - 37.9 °F 63% 29.96 in 10.0 mi NW 10.4 mph - 0.00 in   Overcast
11:53 PM 50.0 °F - 39.0 °F 66% 29.95 in 10.0 mi SSW 4.6 mph - N/A   Overcast